International Virtual Aviation Organisation

Russian Federation and Kazakhstan MCD

 

Карточка аэропорта USPP

Внимание!
Информация на этой странице в стадии наполнения.
Если вы не увидели какой-то информации, или заметили неточность - пожалуйста сообщите нам!
Спасибо!
Команда RU-STAFF
Название аэропортаБольшое Савино
Название аэропорта (англ.)Bolshoe Savino
Превышение404 ft. (123.1 m.)
Координаты57°55.866', 56°1.6019999999999'
Высота перехода1200m
Эшелон переходаQFE>749:FL60; 749>QFE>722:FL70; 722>QFE: FL80;
Коды ответчика5610-5617
Зона ОрВДЕкатеринбург РПИ (USSV)
Данные METARUSPP 300030Z 18002MPS 7000 -SN BKN005 M11/M12 Q1050 R21/490250 TEMPO 1100 -SN BR RMK QBB150 QFE777
Проноз погоды (TAF)USPP 292256Z 3000/3024 12003G08MPS 6000 BKN006 TEMPO 3000/3005 -SN BKN003 BECMG 3005/3006 BKN011 BECMG 3008/3009 15003G08MPS
NOTAMshow/hide NOTAM
AWOS   TABLE

Информация о ВПП

ВПП Длина ВПП (м.) Покрытие Курс ВПП Частота ILS
213204Железобетон211109.9
033204Железобетон31 

Диспетчерские позиции

Позывной Наименование органа УВД Частота
USPP_APPПермь-Подход127.100
USPP_R_APPПермь-Круг121.700
USPP_TWRПермь-Старт124.000



Спутниковое изображение